Content
SEND FEEDBACK

Daily
Averages
Monthly
Summary
United Kingdom

LONDON, ENGLAND


Home > Europe > United Kingdom > England
Elevation: 203 feet     Latitude: 51 09N     Longitude: 000 11W

WEATHER
 
SELECT A DAY
Number of Records: 294,628;   Date Range: 7/1/96 - 9/20/14
 
SHARE

PRINT THIS DATA

[ ← Previous Day ]
WEATHER ALMANAC - MAY 1, 2013
[ Next Day → ]
[ °C ]   °F
Weather ElementAverageHighLow
Temperature49.5 °F60.8 °F (2:50 pm)39.2 °F (1:50 am)
Dewpoint36 °F41 °F (8:50 am)28.4 °F (11:50 pm)
Humidity63.3 %93 % (3:20 am)34 % (3:50 pm)
Barometer30.22 in30.30 in (12:50 am)30.15 in (3:50 pm)
Wind Speed9.4 mph13.8 mph (6:50 pm)
Wind Gust21.9 mph (1:50 pm)
Weather ElementAverage
Visibility6.1 mi
Wind DirectionNE (40 °)

Weather ElementTotal
Precipitation---
Heating Degree Days15 (Base 65)
Averaged from 47 records on May 1, 2013
WEATHER CONDITIONS BREAKOUT
WIND DIRECTION BREAKOUT
WEATHER BY HOUR - MAY 1, 2013
[ °C ]   °F
Local TimeTemperatureDewpointHumidityBarometerVisibilityWind DirectionWind SpeedGust SpeedPrecipitationEventsConditions
12:50 AM41.0 °F37.4 °F87 %30.30 inNNE (30°)6.9 mphClear
1:20 AM41.0 °F37.4 °F87 %30.30 inNNE (30°)10.4 mphClear
1:50 AM39.2 °F35.6 °F87 %30.27 inNNE (20°)6.9 mphClear
2:20 AM39.2 °F35.6 °F87 %30.27 inNorth (10°)5.8 mphClear
2:50 AM39.2 °F35.6 °F87 %30.27 inNNE (30°)6.9 mphClear
3:20 AM39.2 °F37.4 °F93 %30.27 in6.2 miNNE (30°)8.1 mphScattered Clouds
3:50 AM41.0 °F37.4 °F87 %30.27 in6.2 miNNE (30°)10.4 mphMostly Cloudy
4:20 AM41.0 °F39.2 °F93 %30.27 in6.2 miNE (40°)9.2 mphMostly Cloudy
4:50 AM41.0 °F37.4 °F87 %30.27 in6.2 miNE (40°)10.4 mphMostly Cloudy
5:20 AM41.0 °F37.4 °F87 %30.27 in6.2 miNE (40°)8.1 mphMostly Cloudy
5:50 AM41.0 °F37.4 °F87 %30.27 in6.2 miNNE (30°)6.9 mphMostly Cloudy
6:20 AM41.0 °F37.4 °F87 %30.24 inNNE (30°)6.9 mphClear
6:50 AM41.0 °F37.4 °F87 %30.24 in5.6 miNorth (10°)6.9 mphMostly Cloudy
7:20 AM42.8 °F39.2 °F87 %30.24 in5.6 miNNE (20°)6.9 mphMostly Cloudy
7:50 AM44.6 °F39.2 °F81 %30.24 in5.6 miNE (50°)9.2 mphMostly Cloudy
8:20 AM44.6 °F39.2 °F81 %30.24 in5.6 miNNE (30°)9.2 mphScattered Clouds
8:50 AM46.4 °F41.0 °F81 %30.27 in6.2 miNNE (30°)8.1 mphScattered Clouds
9:20 AM48.2 °F41.0 °F76 %30.27 in6.2 miNNE (30°)9.2 mphPartly Cloudy
9:50 AM50.0 °F41.0 °F71 %30.27 in6.2 miNNE (20°)8.1 mphPartly Cloudy
10:20 AM50.0 °F41.0 °F71 %30.27 in6.2 miVariable9.2 mphPartly Cloudy
10:50 AM51.8 °F41.0 °F67 %30.24 in6.2 miNNE (30°)10.4 mphPartly Cloudy
11:20 AM53.6 °F41.0 °F62 %30.24 in6.2 miNNE (20°)9.2 mphPartly Cloudy
11:50 AM55.4 °F41.0 °F58 %30.21 in6.2 miNNE (30°)8.1 mphPartly Cloudy
12:20 PM57.2 °F39.2 °F51 %30.21 in6.2 miNE (40°)8.1 mphPartly Cloudy
12:50 PM59.0 °F35.6 °F42 %30.18 in6.2 miENE (70°)9.2 mphPartly Cloudy
1:20 PM59.0 °F33.8 °F39 %30.18 in6.2 miENE (60°)9.2 mphPartly Cloudy
1:50 PM59.0 °F33.8 °F39 %30.18 inNE (40°)10.4 mph21.9 mphClear
2:20 PM59.0 °F33.8 °F39 %30.18 inVariable9.2 mphClear
2:50 PM60.8 °F33.8 °F36 %30.18 inENE (70°)12.7 mphClear
3:20 PM60.8 °F33.8 °F36 %30.18 inENE (70°)11.5 mphClear
3:50 PM60.8 °F32.0 °F34 %30.15 inENE (60°)10.4 mphClear
4:20 PM60.8 °F33.8 °F36 %30.15 inNE (50°)12.7 mphClear
4:50 PM60.8 °F33.8 °F36 %30.15 inENE (60°)10.4 mphClear
5:20 PM60.8 °F33.8 °F36 %30.15 inNE (50°)10.4 mphClear
5:50 PM59.0 °F35.6 °F42 %30.15 inENE (70°)12.7 mphClear
6:20 PM59.0 °F35.6 °F42 %30.15 inENE (60°)12.7 mphClear
6:50 PM57.2 °F33.8 °F41 %30.15 inNE (50°)13.8 mphClear
7:20 PM55.4 °F33.8 °F44 %30.15 inENE (60°)13.8 mphClear
7:50 PM53.6 °F33.8 °F47 %30.18 inENE (60°)12.7 mphClear
8:20 PM51.8 °F33.8 °F50 %30.18 inENE (70°)12.7 mphClear
8:50 PM48.2 °F33.8 °F58 %30.18 inENE (70°)10.4 mphClear
9:20 PM46.4 °F33.8 °F62 %30.21 inENE (60°)8.1 mphClear
9:50 PM46.4 °F32.0 °F57 %30.21 inNE (40°)9.2 mphClear
10:20 PM46.4 °F32.0 °F57 %30.21 inNE (40°)10.4 mph21.9 mphClear
10:50 PM44.6 °F32.0 °F61 %30.21 inNE (40°)6.9 mphClear
11:20 PM44.6 °F30.2 °F57 %30.21 inNE (40°)5.8 mphClear
11:50 PM44.6 °F28.4 °F53 %30.18 inNNE (20°)6.9 mphClear
Hourly data recorded from EGKK, located miles away from London, England







STORIES FROM OUR PARTNERS